www.pogodaiklimat.ru

Погода и климат >> Архив погоды >> Россия >> Приморский край >> Анучино


ПОГОДА в Анучино

  • Прогноз погоды в Анучино
  • Монитор погоды в Анучино

АРХИВ ПОГОДЫ в Анучино

Время (UTC), дата Ветер
(напр.,м/с)
 
Видим.   Явления Облачность Т
(С)
Тd
(С)
f
(%)
Тe
(С)
Тes
(С)
Комфортность P
(гПа)
Po
(гПа)
Тmin
(С)
Tmax
(С)
R
(мм)
R24
(мм)
S
(см)
00 16.04 З 2 50 км ясно +12.6 -4.0 31 +12 +21 1008.4 986.2
03 16.04 Ю 6-14
{14}
50 км 8/0
[Ci sp]
+20.7 -6.2 16 +20 +25 1005.4 983.8
06 16.04 Ю 4-12
{14}
50 км 8/0
[Ci sp]
+22.8 -7.2 13 +21 +26 комфорт 1003.7 982.3
09 16.04 ЮЗ 3
{13}
50 км 10/1 600 м
[Sc Ci sp]
+20.0 -8.4 14 +20 +20 1004.1 982.5 +22.9
12 16.04 Ю 1
{12}
50 км 4/0
[Ci sp]
+13.9 -9.5 19 +15 +15 1006.7 984.6
15 16.04 ЮЗ 1 50 км ясно +4.4 -4.9 51 +4 +4 1008.4 985.5
18 16.04 ЮЗ 2 50 км ясно +2.3 -5.4 57 -0 -0 1008.6 985.5
21 16.04 ЮЗ 2 50 км ясно +2.1 -4.7 61 -1 -0 1009.0 985.9 +1.3
00 17.04 З 2 50 км 3/0
[Ci fib]
+12.3 -2.8 35 +12 +20 1007.6 985.3
03 17.04 Ю 2 50 км 4/0
[Cs]
+24.6 -5.7 13 +22 +37 комфорт 1003.6 982.4
06 17.04 ЮЗ 4
{11}
50 км 6/0
[Ci fib]
+26.1 -10.6 8 +23 +29 комфорт 1000.5 979.4
09 17.04 ЮЗ 3
{11}
50 км 8/0
[Ci sp]
+21.6 -11.8 10 +20 +20 1001.0 979.6 +26.8
12 17.04 Ю 2
{11}
50 км 9/0
[Cs]
+16.2 -12.2 13 +17 +17 1001.7 979.9
15 17.04 Ю 1 50 км 10/0
[Ac As]
+14.4 -9.5 18 +15 +15 1000.8 978.9
18 17.04 Ю 2 50 км 10/6 600 м
[Sc Ac As]
+12.8 -6.3 26 +13 +13 999.6 977.6
21 17.04 ЮЗ 1 50 км 6/3 600 м
[Sc Ac trans Ci fib]
+10.3 -2.5 41 +10 +11 999.5 977.3 +10.3
00 18.04 ЮЗ 4
{11}
50 км 10/0
[Ac und]
+16.7 +1.1 35 +16 +18 998.7 977.0 +9.7
03 18.04 З 2
{10}
20 км слаб. ливневой дождь 10/10 600 м
[Cb cap]
+7.4 +2.0 69 +6 +6 1003.7 981.2
06 18.04 СЗ 4-11
{15}
50 км {ливн. осадки} 8/8 600 м
[Sc diur, vesp]
+9.8 -5.2 34 +8 +9 1005.6 983.3
09 18.04 СЗ 3
{12}
50 км 9/9 600 м
[Sc diur, vesp]
+6.2 -7.5 37 +4 +4 1009.5 986.8 +17.4 2
12 18.04 С 2 50 км 10/10 600 м
[Sc diur, vesp]
+3.8 -4.7 54 +2 +2 1013.4 990.3
15 18.04 Ю 1 50 км ясно -1.8 -3.6 87 -4 -4 1014.4 990.9
18 18.04 ЮЗ 1 50 км ясно -1.2 -7.9 60 -3 -3 1015.4 991.9
21 18.04 ЮЗ 1 50 км ясно -4.6 -7.7 79 -7 -6 1016.0 992.2 -4.8
00 19.04 СЗ 3 50 км ясно +6.5 -11.6 26 +4 +12 1014.9 992.1
03 19.04 З 4-12
{15}
50 км 3/3 600 м
[Cu med, cong]
+9.7 -12.6 19 +8 +15 1013.9 991.3
06 19.04 С 4
{13}
50 км ясно +12.0 -14.6 14 +11 +17 1011.9 989.5
09 19.04 С 3 50 км ясно +10.1 -18.2 12 +9 +10 1012.4 989.9 +12.1
12 19.04 ЮЗ 2 50 км ясно +2.2 -13.8 29 0 0 1015.1 991.9
15 19.04 ЮЗ 2 50 км ясно -1.6 -11.0 49 -5 -5 1016.2 992.6
18 19.04 ЮЗ 2 50 км ясно -3.3 -10.1 59 -7 -7 1016.6 992.9
21 19.04 Ю 1 50 км 3/0
[Ci fib]
-5.1 -9.4 72 -7 -7 1016.7 992.9 -5.6
00 20.04 З 2 50 км 10/0
[Cs]
+5.4 -9.6 33 +4 +11 1015.2 992.3
03 20.04 ЮЗ 1 50 км 10/0
[Cs]
+12.8 -14.1 14 +14 +29 опасность
простуды
1011.5 989.2
06 20.04 ЮЗ 2 50 км 10/0
[Cs]
+17.2 -13.8 11 +18 +26 1007.7 985.8
09 20.04 ЮЗ 3 50 км 10/0
[Cc]
+13.8 -12.8 15 +13 +14 1006.8 984.7 +17.5
12 20.04 ЮЗ 1 50 км 4/0
[Cs]
+8.5 -8.1 30 +9 +9 1008.4 985.8
15 20.04 З 1 50 км 8/0
[Ac trans]
+5.9 -5.3 44 +6 +6 1009.6 986.8
18 20.04 З 2 50 км 10/0
[Ac und]
+7.4 -1.8 52 +6 +6 1009.8 987.1
21 20.04 Ю 1 50 км 8/0
[Cc]
+3.2 -0.9 74 +2 +2 1012.0 989.0 +2.9
00 21.04 З 2 50 км 9/0
[Cc]
+12.5 -5.8 27 +12 +20 1012.3 990.0
03 21.04 СЗ 2 50 км 10/0
[Ac As]
+12.2 -12.4 17 +12 +17 1011.8 989.5
06 21.04 З 2 50 км 10/0
[Ac As Cs]
+14.5 -16.0 11 +15 +20 1010.4 988.2
09 21.04 З 2 50 км 4/0
[Cs]
+14.9 -17.0 10 +15 +16 1009.3 987.2 +15.6
12 21.04 ЮЗ 1 50 км 3/0
[Cs]
+4.1 -6.8 45 +3 +3 1013.1 990.1
15 21.04 ЮЗ 2 50 км 8/0
[Cs]
+1.1 -8.0 51 -2 -2 1016.2 992.9
18 21.04 З 3 50 км 3/0
[Ci fib]
-0.4 -8.3 55 -5 -5 1017.6 994.1
21 21.04 З 2 50 км ясно -1.5 -8.6 58 -5 -4 1019.0 995.3 -2.0
00 22.04 ЮЗ 2 50 км ясно +7.6 -7.6 33 +6 +15 опасность
простуды
1019.4 996.5
03 22.04 СВ 2 50 км 6/0
[Ci fib]
+15.3 -13.8 12 +16 +30 опасность
простуды
1017.6 995.4
06 22.04 ЮЗ 1 50 км 9/0
[Cc]
+17.9 -14.9 9 +19 +29 1015.6 993.6
09 22.04 СВ 1 50 км ясно +17.7 -16.4 8 +19 +20 1013.8 991.8 +18.2
12 22.04 З 3 50 км 4/0
[Ac trans]
+8.7 -9.6 26 +7 +7 1014.9 992.2
15 22.04 ЮЗ 3 50 км 10/10 600 м
[Sc]
+8.8 -9.4 27 +7 +7 1014.9 992.2
18 22.04 ЮВ 1 50 км {ливн. осадки} 9/3 600 м
[Sc diur, vesp Ac trans]
+6.7 -1.5 56 +6 +6 1012.0 989.2
21 22.04 Ю 2 50 км {ливн. осадки} 8/8 600 м
[Sc diur, vesp]
+9.1 +1.4 59 +8 +8 1010.3 987.8 +6.2 1

 

Местоположение метеостанции Анучино (Приморский край, Россия): широта 43.97 долгота 133.00 высота над уровнем моря 188 м.

В архиве по умолчанию представлена погода в Анучино за последнюю неделю. Архивные данные за месяц целиком и за предыдущие месяцы, начиная с января 2011 года, Вы можете получить, выбрав интересующий диапазон дат из раскрывающегося списка и нажав кнопку "Ввод!".


*Определитесь, кто Вы:
робот инопланетянин человек

Внимание! Время в таблицах - всемирное. Для получения местного времени необходимо прибавить поправку, которая равна 10 ч.

Смотрите также архив погоды в соседних городах и на ближайших метеорологических станциях:

Погода в Чугуевке (Приморский край, Россия) (67 км)
Погода в Многоудобном (Приморский край, Россия) (70 км)
Погода в Спасск-Дальнем (Приморский край, Россия) (75 км)
Погода в Тимирязевском (Приморский край, Россия) (89 км)
Погода в Лазо (Приморский край, Россия) (90 км)
Погода в Партизанске (Приморский край, Россия) (91 км)
Погода в Свиягино (Приморский край, Россия) (92 км)
Погода в Хороле (Приморский край, Россия) (95 км)
Погода в Астраханке (Приморский край, Россия) (115 км)
Погода в Лучегорске (Приморский край, Россия) (123 км)

Пояснения к столбцам:

Ветер - указаны скорость ветра в м/с - средняя за 10 мин, порывы в срок и между сроками (в фигурных скобках) и направление, откуда дует ветер: С - северный, СВ - северо-восточный, В - восточный, ЮВ - юго-восточный, Ю - южный, ЮЗ - юго-западный, З - западный, СЗ - северо-западный.
Видимость - горизонтальная дальность видимости в метрах или километрах. При видимости от 1 до 10 км при отсутствии осадков обычно наблюдается дымка, при ухудшении видимости до 1 км и менее - туман. В сухую погоду видимость может ухудшаться дымом, пылью или мглою.
Явления - указаны атмосферные явления, наблюдавшиеся в срок или в последний час перед сроком; фигурными скобками обозначены явления, наблюдавшиеся между сроками (за 1-3 часа до срока); квадратными скобками обозначены град или гололедные отложения с указанием их диаметра в мм.
Облачность - указаны через наклонную черту общая и нижняя облачность в баллах и высота нижней границы облаков в метрах; квадратными скобками обозначены формы облаков: Ci - перистые, Cs - перисто-слоистые, Cc - перисто-кучевые, Ac - высококучевые, As - высокослоистые, Sc - слоисто-кучевые, Ns - слоисто-дождевые, Cu - кучевые, Cb - кучево-дождевые. Подробнее классификацию облаков см. в Атласе облаков (PDF).
T - Температура воздуха - температура, измеренная на высоте 2 м над землей.
Td - Температура точки росы - температура, при понижении до которой содержащийся в воздухе водяной пар достигнет насыщения.
f - Относительная влажность воздуха - влажноcть воздуха, измеренная на высоте 2 м над землей.
Te - Эффективная температура - температура, которую ощущает одетый по сезону человек в тени. Характеристика душности погоды. При расчете учитывается влияние влажности воздуха и скорости ветра на теплоощущения человека.
Tes - Эффективная температура на солнце - температура, которую ощущает человек, с поправкой на солнечный нагрев. Характеристика знойности погоды. Зависит от высоты солнца над горизонтом, облачности и скорости ветра. Ночью, в пасмурную погоду, а также при ветре 12 м/с и более поправка равна нулю.
P - Атмосферное давление - приведенное к уровню моря атмосферное давление.
Po - Атмосферное давление - измеренное на уровне метеостанции атмосферное давление.
Tmin - Минимальная температура - минимум температуры воздуха на высоте 2 м над землей.
Tmax - Максимальная температура - максимум температуры воздуха на высоте 2 м над землей.
R - Количество осадков - Количество выпавших осадков за период времени, мм. При наведении курсора мыши на число - период времени, за который выпало указанное количество осадков.
R24 - Количество осадков - Количество выпавших осадков за 24 часа, мм.
S - Снежный покров - Высота снежного покрова, см. При наведении курсора мыши на число - состояние снежного покрова и степень покрытия местности в баллах.